Location: Cactus School
(34.5700°N, 118.0931°W)
Time: 14:25:16
(UTC-07:00)

S-56A Canister/Altair - Pass Details

Date: 14 April 2024
Orbit: 638 x 2488 km, 38.9° (Epoch: 29 May)

Event Time Altitude Azimuth Distance (km) Brightness Sun altitude
Rises 18:57:27 0° 243° (WSW) 3,360 11.8 4.6°
Reaches altitude 10° 18:59:35 10° 243° (WSW) 2,580 11.2 4.1°
Maximum altitude 19:05:45 82° 156° (SSE) 1,187 8.6 2.9°
Drops below altitude 10° 19:15:17 10° 71° (ENE) 3,885 10.6 1.0°
Sets 19:19:10 0° 70° (ENE) 5,172 11.2 0.2°
